Wind_Speed
15 13 11 10 11 13 15 17 19 17 15 15 15 17 14 16 16 17 16 16 16 16 17 16 15 15 15 14 15 15 16 16 16 15 13 12 11 11 11 12 13 13 14
13 14 12 10 11 15 18 20 21 18 17 17 18 17 16 16 16 16 17 17 17 16 15 12 12 13 11 13 14 14 14 13 13 13 14 15 14 11 10 9 10 12 12
12 12 10 8 10 12 16 24 26 22 21 20 18 14 14 12 10 8 8 8 9 9 9 10 11 10 11 12 11 12 11 10 9 8 9 10 11 13 12 10 8 8 8
13 11 6 10 12 18 3 24 32 30 24 16 10 8 8 7 7 6 6 6 6 6 6 8 9 10 11 10 9 9 7 5 5 6 6 8 9 8 7 8 10 9 6
10 8 9 13 12 14 12 17 23 18 17 12 9 9 7 6 5 6 7 7 6 6 6 7 7 9 9 9 8 7 7 7 7 6 8 11 13 11 9 5 4 6 9
11 12 10 10 11 11 8 11 8 6 11 8 9 7 6 6 7 8 8 7 8 7 7 7 7 7 7 8 7 7 7 6 4 5 7 10 16 7 5 5 8 2 2
15 13 10 11 10 9 7 7 9 12 12 12 7 7 7 6 6 6 6 7 7 6 5 6 6 6 6 6 6 6 6 5 3 2 3 4 4 3 2 4 1 1 2
17 16 10 13 14 12 9 9 10 10 10 9 8 6 5 5 5 4 5 3 3 3 3 3 3 3 3 4 5 5 6 5 5 5 5 5 5 6 5 4 5 6 5
17 16 11 11 14 13 13 13 11 9 8 8 7 6 6 5 4 4 3 2 2 1 1 2 2 2 2 3 4 4 5 6 6 7 8 8 8 10 10 10 9 9 8
21 19 18 14 16 14 15 14 12 11 9 6 6 6 5 5 5 4 4 3 3 3 2 2 2 2 2 2 3 4 4 5 6 8 9 9 9 11 11 10 10 9 10
25 23 21 21 19 19 17 15 12 10 8 7 7 7 6 5 5 4 4 4 3 3 3 2 2 2 2 2 2 3 5 6 7 8 9 10 11 12 13 13 13 12 12
29 27 24 22 21 20 16 13 11 10 9 9 8 7 7 6 6 5 4 4 3 3 2 2 2 2 2 2 3 4 6 7 8 9 11 11 11 13 13 14 14 13 12
32 28 27 25 23 21 18 16 14 12 11 9 9 8 8 8 7 6 5 5 4 3 3 3 3 3 3 4 6 7 8 9 11 12 13 13 14 14 14 16 15 16 15
32 30 28 27 25 23 21 18 16 13 11 10 10 9 9 8 7 6 6 5 5 5 5 4 4 5 5 6 8 8 8 8 8 9 9 11 11 12 13 13 13 14 17
35 33 31 29 27 24 22 20 18 15 14 13 12 10 11 9 8 7 7 7 7 6 6 5 4 6 6 6 6 6 7 7 7 6 7 9 9 9 12 13 15 15 15
37 36 34 32 29 27 24 21 19 17 15 15 13 13 12 11 10 9 8 8 7 6 6 5 5 6 6 6 6 6 7 7 7 7 7 7 8 9 12 12 12 12 12
40 38 37 34 31 29 26 24 22 19 17 16 15 14 13 12 11 10 9 9 8 6 6 5 5 6 6 6 6 6 7 7 7 7 7 8 9 11 12 13 14 15 15
40 40 38 37 34 31 29 26 24 22 19 19 18 16 14 13 12 10 10 9 8 7 6 6 6 6 6 6 6 6 7 7 8 9 9 9 9 8 10 12 14 17 19
41 42 42 40 37 34 31 28 26 24 22 21 18 17 16 14 12 11 11 9 8 7 7 6 7 7 7 7 7 7 8 9 9 9 9 8 8 11 14 16 16 17 19
42 43 44 41 39 36 33 31 28 26 25 22 20 19 16 14 13 12 11 10 9 9 9 8 9 9 10 9 8 8 7 7 8 8 8 7 9 14 14 16 18 20 22
43 45 46 44 42 41 39 36 33 30 27 25 23 20 17 16 15 14 13 12 12 11 9 8 8 9 10 9 6 8 6 5 5 7 7 10 20 13 16 20 22 23 23
45 46 48 47 45 44 41 39 35 31 29 25 23 21 19 17 16 15 13 13 11 9 8 8 8 9 10 10 9 7 2 6 6 6 16 16 15 14 18 22 21 22 23
47 49 51 50 48 45 43 39 35 31 29 28 26 24 21 19 16 15 14 12 10 8 8 8 9 9 10 10 10 6 4 3 12 9 9 15 13 21 23 22 21 22 22
45 48 50 51 50 47 45 42 39 38 36 32 26 24 22 19 17 15 13 11 10 9 9 9 9 9 9 10 11 10 8 8 5 9 9 21 17 26 24 21 22 21 22
40 45 49 50 50 49 44 42 40 37 32 27 26 24 21 18 17 15 13 12 10 9 9 9 9 10 10 11 11 11 11 12 12 11 22 26 32 28 27 27 23 23 22
29 38 45 49 50 48 44 42 40 36 32 29 27 25 22 20 18 16 14 12 10 10 9 9 9 10 11 11 11 12 13 14 17 15 22 31 34 33 32 24 25 24 22
Wind_Direction
191 193 201 207 208 212 193 185 172 162 154 141 136 132 126 116 114 111 109 104 101 94 91 88 89 87 89 94 99 98 93 90 86 81 80 79 81 82 81 79 78 76 73
183 189 190 210 217 215 204 197 174 155 141 139 134 131 133 134 127 123 118 114 110 103 105 96 89 104 106 104 104 104 96 90 84 80 78 73 71 75 76 73 77 76 71
163 178 186 213 229 205 197 196 171 151 141 137 125 129 142 138 137 141 140 131 128 118 109 99 92 102 113 112 108 105 100 98 95 94 85 73 66 67 70 70 70 67 66
146 143 120 164 93 164 262 114 137 140 135 130 137 147 162 156 157 156 152 145 139 133 128 109 105 105 109 122 123 117 111 99 83 76 83 79 64 53 64 69 69 61 56
179 148 161 181 95 81 100 94 105 120 131 130 165 175 179 169 157 147 137 133 134 136 138 136 131 121 120 122 129 125 122 111 99 92 87 88 76 63 56 78 77 67 59
162 167 162 144 131 129 146 124 139 143 117 175 191 174 151 141 138 137 134 137 139 139 135 134 138 145 146 139 140 144 139 136 119 105 97 107 86 83 79 79 62 99 114
166 174 158 176 190 192 191 175 162 167 165 170 167 152 148 154 147 149 151 147 145 144 135 131 136 141 145 154 166 165 172 171 179 158 140 144 124 93 11 40 70 183 198
181 192 175 201 209 213 193 165 167 163 158 167 164 170 173 174 160 168 171 171 157 150 151 156 171 167 164 160 169 183 199 206 215 227 232 241 259 260 269 303 324 319 322
189 183 187 188 191 188 179 181 181 186 181 181 180 191 191 196 185 195 203 197 214 208 200 190 197 193 189 187 200 209 217 229 239 243 247 255 267 277 289 296 300 291 291
199 193 191 195 192 193 192 191 191 190 197 194 205 214 207 203 203 199 199 199 204 202 205 192 204 217 202 202 217 234 253 265 270 274 275 276 274 275 280 285 286 291 296
203 200 200 193 199 198 199 198 199 196 211 210 208 210 214 214 213 218 218 215 212 214 213 203 206 208 232 237 236 254 270 278 280 280 281 284 286 286 288 292 292 292 292
203 201 202 199 198 200 201 202 208 214 215 211 213 216 221 219 219 221 227 232 231 230 235 236 236 232 228 242 257 258 264 274 281 286 287 288 286 289 295 298 298 299 295
205 206 202 202 202 205 207 209 216 216 219 219 218 218 221 225 227 231 230 231 238 237 239 234 234 246 267 279 283 280 278 276 276 277 278 280 281 285 290 290 290 285 285
210 212 210 207 209 208 211 214 217 218 222 221 219 221 226 230 228 230 236 240 236 233 230 237 251 275 280 277 274 278 274 273 274 275 277 277 279 278 276 273 275 273 273
213 211 211 213 210 212 214 215 216 219 224 227 225 223 223 227 230 231 234 231 232 232 236 247 266 276 281 282 282 282 289 289 288 287 284 281 278 269 261 264 268 271 276
217 215 214 214 214 213 216 218 221 221 221 222 222 223 228 231 233 237 238 238 237 237 249 266 279 286 296 302 300 305 303 305 299 297 294 291 286 277 273 280 284 288 286
221 217 216 215 216 217 219 220 221 223 223 223 221 226 229 230 233 236 237 241 243 249 264 277 292 302 310 307 305 303 298 297 288 281 282 281 280 282 286 291 294 294 295
222 220 219 218 220 219 218 219 221 221 220 221 223 224 228 230 232 236 238 239 244 251 267 285 297 303 302 300 299 294 298 290 278 279 277 273 271 275 285 292 293 292 290
227 221 219 221 222 219 217 216 217 217 217 219 221 225 226 228 232 234 237 240 247 260 272 286 294 299 298 308 298 298 299 278 274 275 272 273 284 295 299 303 305 305 303
226 224 222 221 219 217 216 213 212 212 213 216 218 220 224 228 231 236 241 247 254 260 269 282 292 303 310 316 311 314 291 269 266 254 252 265 303 309 309 308 308 306 303
226 222 220 219 217 215 212 211 211 214 217 217 216 219 223 226 229 232 239 244 247 257 273 286 299 309 310 320 321 322 289 271 252 243 251 288 302 306 315 315 315 313 310
228 223 221 220 219 217 216 216 218 216 214 216 214 213 216 221 226 230 233 240 250 261 274 290 299 306 317 333 342 342 312 300 261 263 282 293 301 307 318 320 321 317 315
226 224 221 219 218 217 217 216 214 212 211 211 211 215 219 224 227 230 236 244 253 267 282 293 303 313 323 338 349 3 346 321 303 291 277 290 295 312 321 324 324 322 319
233 224 221 220 218 217 218 216 216 215 213 219 219 219 220 221 223 227 233 241 252 267 285 299 309 316 327 334 341 344 335 309 307 298 292 298 305 317 324 328 327 325 322
239 230 223 219 217 217 216 216 215 217 220 220 216 218 218 219 221 226 233 244 258 274 288 298 307 315 323 330 333 331 327 321 313 307 312 314 316 321 326 330 333 329 325
240 232 225 220 216 216 214 214 216 218 216 213 214 214 216 218 221 227 236 248 263 277 288 297 305 312 321 324 324 321 320 320 317 314 308 314 315 319 323 328 330 330 328
Height
1503 1505 1507 1508 1510 1511 1513 1514 1515 1517 1519 1519 1520 1518 1523 1523 1524 1523 1525 1525 1525 1526 1525 1525 1525 1525 1526 1526 1526 1527 1527 1528 1529 1529 1530 1530 1531 1531 1532 1532 1532 1532 1532
1502 1504 1506 1507 1508 1509 1511 1513 1513 1515 1517 1519 1520 1521 1520 1524 1523 1524 1525 1525 1526 1526 1525 1525 1526 1526 1526 1527 1528 1529 1529 1530 1530 1531 1532 1532 1532 1533 1533 1533 1534 1534 1534
1502 1504 1506 1506 1506 1508 1508 1510 1510 1513 1517 1518 1519 1520 1524 1524 1524 1525 1525 1525 1525 1526 1526 1526 1527 1526 1528 1528 1529 1530 1531 1531 1531 1532 1533 1533 1533 1534 1534 1534 1535 1535 1536
1502 1504 1506 1506 1504 1505 1499 1492 1502 1510 1513 1517 1519 1522 1524 1524 1524 1524 1525 1525 1525 1526 1527 1527 1527 1527 1528 1529 1530 1530 1531 1532 1532 1533 1533 1534 1534 1535 1535 1536 1536 1537 1537
1503 1504 1506 1506 1506 1501 1498 1493 1505 1511 1515 1519 1521 1522 1523 1524 1524 1525 1525 1524 1525 1525 1527 1527 1527 1527 1529 1530 1530 1531 1532 1532 1532 1533 1534 1534 1535 1536 1535 1536 1537 1538 1538
1502 1505 1506 1504 1506 1505 1509 1508 1507 1515 1516 1520 1522 1522 1523 1524 1524 1525 1525 1525 1525 1526 1527 1527 1527 1528 1530 1530 1530 1531 1532 1533 1533 1534 1534 1534 1534 1535 1534 1535 1536 1537 1537
1500 1504 1506 1506 1507 1509 1512 1512 1512 1515 1518 1520 1521 1522 1523 1524 1524 1525 1525 1526 1526 1527 1527 1527 1527 1528 1529 1529 1530 1531 1533 1533 1533 1533 1534 1534 1534 1535 1535 1535 1535 1535 1536
1499 1502 1503 1506 1508 1510 1512 1512 1514 1516 1518 1520 1521 1521 1522 1523 1524 1525 1526 1526 1526 1527 1528 1528 1528 1529 1529 1529 1530 1531 1532 1532 1533 1533 1534 1534 1534 1534 1535 1535 1536 1536 1536
1498 1499 1502 1504 1507 1509 1510 1512 1514 1517 1518 1519 1520 1522 1522 1522 1524 1525 1526 1525 1526 1526 1528 1528 1528 1528 1529 1529 1530 1531 1531 1531 1532 1532 1532 1532 1533 1534 1534 1535 1535 1535 1535
1499 1499 1500 1503 1506 1508 1510 1512 1514 1516 1518 1519 1520 1522 1522 1522 1524 1524 1524 1524 1526 1526 1527 1528 1528 1528 1528 1528 1529 1529 1529 1530 1530 1531 1532 1532 1532 1532 1532 1533 1533 1533 1533
1496 1498 1500 1500 1503 1506 1509 1511 1513 1515 1517 1517 1519 1521 1521 1522 1522 1523 1524 1525 1526 1526 1527 1527 1528 1528 1528 1528 1528 1528 1528 1529 1529 1530 1530 1530 1530 1531 1531 1531 1531 1531 1531
1493 1496 1499 1500 1503 1506 1508 1511 1512 1513 1515 1517 1518 1519 1520 1521 1522 1523 1524 1525 1525 1525 1525 1526 1527 1528 1527 1527 1528 1528 1528 1527 1527 1527 1528 1528 1529 1529 1528 1528 1528 1529 1527
1492 1495 1497 1499 1502 1505 1507 1510 1511 1512 1515 1515 1516 1518 1520 1521 1521 1522 1523 1524 1524 1524 1525 1526 1526 1527 1527 1526 1526 1525 1525 1525 1525 1525 1526 1526 1526 1527 1526 1526 1525 1525 1525
1487 1492 1494 1497 1500 1503 1506 1508 1509 1511 1512 1514 1515 1516 1519 1519 1520 1521 1522 1522 1523 1524 1525 1525 1526 1526 1525 1525 1525 1524 1523 1522 1522 1523 1523 1524 1523 1524 1524 1524 1521 1521 1521
1483 1487 1491 1494 1497 1500 1503 1506 1507 1510 1511 1513 1513 1515 1518 1518 1520 1520 1521 1521 1523 1523 1524 1525 1523 1524 1524 1524 1523 1521 1522 1519 1519 1519 1520 1520 1520 1520 1520 1519 1518 1517 1517
1478 1482 1487 1490 1494 1498 1500 1503 1505 1507 1509 1511 1512 1514 1517 1517 1517 1517 1518 1520 1522 1522 1523 1523 1523 1523 1522 1522 1521 1518 1519 1517 1517 1517 1516 1517 1517 1517 1517 1516 1515 1515 1514
1473 1478 1481 1486 1490 1493 1497 1500 1502 1504 1505 1508 1510 1512 1515 1516 1515 1516 1517 1519 1521 1521 1522 1521 1522 1521 1520 1521 1520 1517 1516 1515 1515 1515 1514 1514 1515 1515 1514 1514 1513 1512 1511
1468 1473 1477 1481 1484 1489 1493 1495 1498 1501 1502 1506 1508 1510 1512 1513 1513 1514 1517 1518 1518 1519 1520 1519 1520 1519 1520 1518 1518 1517 1513 1512 1513 1512 1511 1512 1513 1513 1513 1512 1511 1510 1508
1463 1468 1472 1476 1480 1485 1488 1492 1495 1497 1500 1504 1505 1507 1510 1510 1511 1513 1515 1516 1516 1518 1518 1516 1517 1517 1519 1516 1516 1513 1510 1511 1510 1509 1509 1509 1511 1511 1510 1509 1507 1505 1504
1460 1464 1468 1472 1476 1481 1485 1488 1491 1494 1498 1500 1501 1504 1506 1507 1509 1511 1512 1513 1513 1516 1514 1513 1515 1515 1515 1514 1513 1509 1508 1508 1507 1507 1507 1508 1509 1508 1507 1505 1503 1501 1499
1452 1457 1461 1466 1471 1474 1477 1481 1486 1490 1493 1496 1499 1501 1504 1506 1507 1509 1509 1510 1513 1512 1511 1511 1512 1512 1513 1512 1509 1507 1505 1505 1505 1505 1505 1505 1505 1504 1503 1501 1499 1496 1494
1443 1448 1454 1458 1463 1468 1473 1477 1482 1487 1491 1494 1495 1498 1501 1503 1504 1505 1507 1509 1509 1509 1509 1509 1510 1511 1509 1507 1505 1502 1502 1503 1502 1503 1503 1502 1501 1500 1499 1497 1494 1491 1488
1432 1437 1443 1450 1456 1461 1467 1472 1477 1483 1487 1489 1491 1494 1497 1499 1501 1504 1505 1506 1507 1507 1506 1507 1507 1507 1505 1504 1502 1502 1500 1500 1501 1500 1499 1498 1497 1496 1495 1492 1490 1487 1484
1423 1430 1435 1441 1448 1454 1460 1466 1471 1474 1478 1483 1489 1492 1493 1495 1498 1501 1503 1505 1505 1504 1504 1504 1504 1503 1502 1500 1499 1499 1500 1501 1501 1497 1495 1493 1492 1491 1490 1488 1486 1482 1479
1419 1423 1430 1436 1442 1447 1455 1461 1466 1471 1476 1481 1486 1489 1491 1493 1496 1499 1501 1502 1502 1502 1501 1501 1500 1500 1499 1498 1498 1498 1499 1498 1497 1494 1487 1485 1484 1483 1483 1482 1480 1478 1475
1414 1420 1426 1431 1436 1442 1449 1455 1461 1467 1473 1478 1481 1485 1489 1491 1494 1496 1498 1499 1499 1499 1499 1499 1498 1497 1497 1497 1497 1497 1496 1496 1493 1491 1487 1483 1480 1477 1476 1477 1476 1473 1471